This demonstration page uses our WeatherBlox Daily Observations layout. Learn more.

Left ArrowRight Arrow

Hourly Observations for July 28, 2016

Temp ( °F °C ) Dew Point ( °F °C ) Humidity (%) Winds ( mph kmh ) Pressure ( in mb ) Visibility ( mi km ) Precip ( " mm )
12:59 am 00:59 Cloudy 84 28.9 78 25.6 82 82 SE 5 7 29.92 1013 8 13 0.00 0.00
1:14 am 01:14 Mostly Cloudy with Thunderstorms 84 28.9 78 25.6 82 82 S 3 6 29.94 1014 6 10 0.00 0.03
1:59 am 01:59 Cloudy with Thunderstorms 83 28.3 80 26.7 91 91 Calm 29.92 1013 6 10 0.00 0.03
2:35 am 02:35 Mostly Cloudy 82 27.8 78 25.6 88 88 ESE 3 6 29.91 1013 7 11 0.00 0.00
2:59 am 02:59 Mostly Cloudy 81 27.2 76 24.4 85 85 Calm 29.91 1013 8 13 0.00 0.00
3:59 am 03:59 Partly Cloudy 82 27.8 78 25.6 88 88 SW 5 7 29.91 1013 7 11 0.00 0.00
4:59 am 04:59 Partly Cloudy 81 27.2 76 24.4 85 85 W 3 6 29.91 1013 8 13 0.00 0.00
5:59 am 05:59 Partly Cloudy 81 27.2 77 25 88 88 WNW 5 7 29.92 1013 7 11 0.00 0.00
6:59 am 06:59 Partly Cloudy 82 27.8 76 24.4 82 82 W 5 7 29.93 1013 10 16 0.00 0.00
7:59 am 07:59 Partly Cloudy 84 28.9 77 25 80 80 Calm 29.93 1013 10 16 0.00 0.00
8:59 am 08:59 Partly Cloudy 87 30.6 77 25 72 72 Calm 29.93 1013 8 13 0.00 0.00
9:59 am 09:59 Partly Cloudy 89 31.7 78 25.6 70 70 N 5 7 29.92 1013 8 13 0.00 0.00
10:59 am 10:59 Partly Cloudy 90 32.2 76 24.4 63 63 WSW 6 9 29.91 1013 7 11 0.00 0.00
11:59 am 11:59 Partly Cloudy 94 34.4 77 25 58 58 VRB 5 7 29.90 1013 7 11 0.00 0.00
12:59 pm 12:59 Partly Cloudy 95 35 78 25.6 58 58 NE 6 9 29.89 1012 7 11 0.00 0.00
1:59 pm 13:59 Mostly Sunny 93 33.9 78 25.6 62 62 NE 7 11 29.87 1012 7 11 0.00 0.00
2:59 pm 14:59 Partly Cloudy 95 35 78 25.6 58 58 NNE 7 11 29.84 1011 8 13 0.00 0.00
3:59 pm 15:59 Mostly Cloudy 94 34.4 77 25 58 58 W 6 9 29.81 1010 8 13 0.00 0.00
4:59 pm 16:59 Partly Cloudy 91 32.8 75 23.9 59 59 E 6 9 29.81 1009 8 13 0.00 0.00
5:59 pm 17:59 Partly Cloudy 89 31.7 77 25 68 68 ESE 7 11 29.80 1009 8 13 0.00 0.00
6:59 pm 18:59 Mostly Cloudy 88 31.1 76 24.4 68 68 SE 9 15 29.80 1009 9 14 0.00 0.00
7:59 pm 19:59 Mostly Cloudy 89 31.7 76 24.4 65 65 SSE 6 9 29.83 1010 10 16 0.00 0.00
8:59 pm 20:59 Mostly Cloudy 87 30.6 75 23.9 67 67 ESE 6 9 29.82 1010 10 16 0.00 0.00
9:59 pm 21:59 Mostly Cloudy 86 30 76 24.4 72 72 SSE 5 7 29.82 1010 10 16 0.00 0.00
10:59 pm 22:59 Partly Cloudy 88 31.1 76 24.4 68 68 SSW 6 9 29.80 1009 10 16 0.00 0.00
11:59 pm 23:59 Partly Cloudy 87 30.6 75 23.9 67 67 SSW 7 11 29.84 1011 10 16 0.00 0.00

Powered by AerisWeather